Погода в Кигали

Руанда     1°56′58″S   30°05′30″E
темп.,
°C
ветер,
м/с
пор.,
м/с
влажн.,
%
обл.,
%
осадки,
мм/ч
давл.,
гПа
погр.,
м
1 марта, пн
пн123:00+17зсз12830 0.0 101323
02:00+15сз12860 0.0 101225
05:00+15сз128967 0.1 101226
08:00+19зсз017578 0.1 1014166
11:00+28ссв274136 0.0 10122053
14:00+28ссв354142 0.0 10082395
17:00+26всв255273 0.0 10071020
20:00+19в017246 0.0 101223
2 марта, вт
вт223:00+16з119535 5.0 101329
02:00+16сз129658 5.1 101231
05:00+15сз1196100 0.0 101223
08:00+18ююв0088100 0.0 1014140
11:00+21ююз1179100 0.4 1013270
14:00+28ююв125091 0.5 10091557
17:00+22ююз1384100 4.4 1008161
20:00+18зюз1193100 7.6 101223
3 марта, ср
ср323:00+17зсз1195100 2.1 101324
02:00+16зсз229695 2.3 101250
05:00+15с119699 0.0 101223
08:00+17зсз009491 0.1 101440
11:00+24ююв127576 2.8 1013477
14:00+24юв117674 9.5 1009362
17:00+21зюз1188100 3.1 100964
20:00+17зсз0191100 4.0 101223
4 марта, чт
чт423:00+17з1192100 0.1 101423
02:00+16зсз1194100 0.1 101123
05:00+15сз1195100 0.0 101223
08:00+18вюв1189100 0.0 1014190
11:00+22юв2381100 2.6 1012551
14:00+23ююв1277100 6.9 1009605
17:00+22юз1186100 2.9 1009107
20:00+17зсз1192100 3.8 101223
5 марта, пт
пт523:00+16зсз1193100 0.0 101323
02:00+16сз2295100 0.2 101241
05:00+15сз1195100 0.0 101323
08:00+19сз1185100 0.0 1014163
11:00+26св255029 0.7 10121663
14:00+28св464342 1.1 10092245
17:00+24ссз146754 0.4 1009516
20:00+18юз119177 2.4 101350